Weather reports worldwide

Advertisment
Chivenor, United Kingdom (3707): temperature & dewpoint: 15.01.2021 05:00:00 - 21.01.2021 05:00:00 (GMT)Chivenor, United Kingdom (3707): temperature -20cm & temperature -100cm: 15.01.2021 05:00:00 - 21.01.2021 05:00:00 (GMT)Chivenor, United Kingdom (3707): wind speed & gusts: 15.01.2021 05:00:00 - 21.01.2021 05:00:00 (GMT)Chivenor, United Kingdom (3707): wind direction: 15.01.2021 05:00:00 - 21.01.2021 05:00:00 (GMT)Chivenor, United Kingdom (3707): reduced air pressure: 15.01.2021 05:00:00 - 21.01.2021 05:00:00 (GMT)Chivenor, United Kingdom (3707): visibility: 15.01.2021 05:00:00 - 21.01.2021 05:00:00 (GMT)Chivenor, United Kingdom (3707): precipitation: 15.01.2021 05:00:00 - 21.01.2021 05:00:00 (GMT)
Date & Time tt [°C] td [°C] tt -20cm [°C] tt -100cm [°C] ff [km/h] ff [kn] fx [km/h] fx [kn] dd ppp [hPa] vv [km] rr [mm]
21.01.2021 05:00:00 - - - - - - - - - - - 0,0
21.01.2021 04:00:00 6,5 2,7 - - 46 25 68 37 W 985,2 35 0,0
21.01.2021 03:00:00 6,6 3,3 - - 34 18 63 34 W 984,7 35 0,0
21.01.2021 02:00:00 6,5 2,0 - - 35 19 54 29 W 984,3 45 0,0
21.01.2021 01:00:00 5,9 2,5 - - 35 19 55 30 W 983,7 50 0,0
21.01.2021 00:00:00 5,9 1,4 - - 39 21 63 34 WNW 982,6 50 0,0
20.01.2021 23:00:00 5,7 1,5 - - 42 23 59 32 WNW 981,0 50 0,2
20.01.2021 22:00:00 3,9 2,3 - - 39 21 59 32 WNW 979,6 22 0,8
20.01.2021 21:00:00 4,7 3,4 - - 26 14 50 27 WNW 978,8 12 2,2
20.01.2021 20:00:00 5,2 4,1 - - 35 19 68 37 NW 977,8 6 3,0
20.01.2021 19:00:00 6,0 4,7 - - 44 24 61 33 NW 976,3 4,1 2,6
20.01.2021 18:00:00 10,9 9,4 - - 29 16 50 27 S 976,1 13 0,0
20.01.2021 17:00:00 11,5 9,4 - - 39 21 55 30 S 977,4 19 0,0
20.01.2021 16:00:00 11,2 9,9 - - 29 16 48 26 SSW 978,6 17 2,2
20.01.2021 15:00:00 11,4 10,1 - - 28 15 - - SSW 979,7 10 0,6
20.01.2021 14:00:00 11,5 10,1 - - 29 16 48 26 SSW 980,9 3,2 0,0
20.01.2021 13:00:00 11,9 9,9 - - 37 20 59 32 SSW 982,1 40 0,0
20.01.2021 12:00:00 11,5 10,0 - - 39 21 59 32 SSW 982,9 12 0,0
20.01.2021 11:00:00 11,5 9,8 - - 35 19 52 28 SSW 984,1 35 0,2
20.01.2021 10:00:00 11,5 9,9 - - 39 21 52 28 SSW 984,7 26 0,2
20.01.2021 09:00:00 11,2 10,0 8,7 8,7 34 18 52 28 SSW 985,5 12 0,2
20.01.2021 08:00:00 11,5 10,6 - - 26 14 - - SSW 986,4 45 0,4
20.01.2021 07:00:00 11,3 10,0 - - 26 14 - - SSW 986,8 2,6 0,0
20.01.2021 06:00:00 11,6 10,3 - - 31 17 - - SSW 987,8 25 0,4
20.01.2021 05:00:00 11,8 10,8 - - 26 14 - - SW 988,9 17 0,4
20.01.2021 04:00:00 11,8 10,6 - - 31 17 46 25 SW 989,9 8 0,6
20.01.2021 03:00:00 11,8 10,8 - - 37 20 48 26 SW 990,5 4,1 0,6
20.01.2021 02:00:00 11,5 10,7 - - 34 18 65 35 SW 991,2 9 0,2
20.01.2021 01:00:00 11,6 10,9 - - 24 13 46 25 SW 992,1 4,7 3,8
20.01.2021 00:00:00 11,9 10,9 - - 31 17 - - SW 992,8 5 1,6
19.01.2021 23:00:00 11,5 10,8 - - 29 16 46 25 SW 993,4 3,9 0,2
19.01.2021 22:00:00 11,2 10,7 - - 22 12 - - SSW 994,2 3,0 1,0
19.01.2021 21:00:00 10,9 10,4 - - 24 13 - - SW 995,1 9 1,6
19.01.2021 20:00:00 11,0 10,3 - - 28 15 - - SSW 996,0 3,9 0,8
19.01.2021 19:00:00 10,8 10,1 - - 28 15 46 25 SSW 996,7 4,5 0,2
19.01.2021 18:00:00 10,6 9,8 - - 31 17 46 25 SSW 997,6 4,1 0,0
19.01.2021 17:00:00 10,5 9,8 - - 29 16 48 26 SW 998,5 3,4 0,2
19.01.2021 16:00:00 10,4 9,6 - - 31 17 48 26 SSW 999,6 2,8 0,6
19.01.2021 15:00:00 10,4 9,4 - - 35 19 50 27 SSW 1000,2 2,4 0,2
19.01.2021 14:00:00 10,5 8,9 - - 37 20 50 27 SSW 1001,5 5 0,0
19.01.2021 13:00:00 10,7 8,6 - - 28 15 - - SW 1003,2 20 0,0
19.01.2021 12:00:00 10,8 8,4 - - 28 15 - - SW 1004,6 45 0,0
19.01.2021 11:00:00 9,8 8,5 - - 26 14 - - SW 1005,7 4,8 0,0
19.01.2021 10:00:00 10,1 8,0 - - 28 15 - - SW 1006,4 30 0,0
19.01.2021 09:00:00 10,1 8,0 8,0 8,5 31 17 59 32 WSW 1007,5 30 0,0
19.01.2021 08:00:00 10,1 9,0 - - 42 23 55 30 WSW 1007,6 8 0,0
19.01.2021 07:00:00 10,5 9,5 - - 37 20 55 30 WSW 1007,8 14 0,2
19.01.2021 06:00:00 10,5 9,9 - - 39 21 54 29 W 1008,3 12 0,0
19.01.2021 05:00:00 10,3 9,9 - - 35 19 52 28 WSW 1008,6 1,6 0,0
19.01.2021 04:00:00 10,3 9,9 - - 35 19 61 33 W 1009,0 3,8 0,0
19.01.2021 03:00:00 10,4 9,9 - - 39 21 59 32 W 1009,2 2,0 0,4
19.01.2021 02:00:00 10,5 9,8 - - 41 22 59 32 WSW 1009,4 3,7 0,8
19.01.2021 01:00:00 10,6 10,1 - - 37 20 50 27 WSW 1009,5 9 1,6
19.01.2021 00:00:00 10,5 10,1 - - 39 21 52 28 WSW 1010,2 4,2 0,2
18.01.2021 23:00:00 10,5 9,9 - - 22 12 - - WSW 1010,6 3,4 1,6
18.01.2021 22:00:00 10,6 10,0 - - 18 10 - - SW 1011,7 45 0,0
18.01.2021 21:00:00 10,2 9,6 - - 18 10 - - SSW 1012,5 4,2 0,2
18.01.2021 20:00:00 10,4 9,4 - - 16 9 - - SSW 1013,5 6 0,0
18.01.2021 19:00:00 10,6 9,6 - - 15 8 - - SSW 1014,5 35 0,0
18.01.2021 18:00:00 9,7 9,1 - - 18 10 - - SW 1015,6 25 0,2
18.01.2021 17:00:00 9,4 8,5 - - 21 11 - - SSW 1016,4 24 0,4
18.01.2021 16:00:00 9,2 8,1 - - 22 12 - - SSW 1017,3 27 0,0
18.01.2021 15:00:00 8,8 7,4 - - 15 8 - - S 1018,3 6 0,2
18.01.2021 14:00:00 9,1 6,9 - - 16 9 - - SSW 1019,5 27 0,0
18.01.2021 13:00:00 8,5 6,6 - - 15 8 - - SSW 1020,9 20 0,0
18.01.2021 12:00:00 7,9 6,2 - - 16 9 - - SSW 1022,1 17 0,0
18.01.2021 11:00:00 7,4 5,5 - - 13 7 - - SSW 1023,0 20 0,0
18.01.2021 10:00:00 6,4 4,6 - - 9 5 - - SSW 1023,5 30 0,0
18.01.2021 09:00:00 6,3 4,5 7,2 8,5 11 6 - - SSW 1023,8 45 0,0
18.01.2021 08:00:00 5,8 4,7 - - 16 9 - - SW 1023,9 35 0,0
18.01.2021 07:00:00 4,8 3,5 - - 4 2 - - ESE 1024,3 26 0,0
18.01.2021 06:00:00 6,3 5,4 - - 9 5 - - W 1024,4 35 0,8
18.01.2021 05:00:00 5,6 4,3 - - 9 5 - - WSW 1024,9 50 0,0
18.01.2021 04:00:00 5,2 4,2 - - 9 5 - - SW 1025,3 50 0,0
18.01.2021 03:00:00 5,0 3,7 - - 11 6 - - SSW 1025,7 45 0,0
18.01.2021 02:00:00 6,2 4,4 - - 13 7 - - WSW 1026,1 50 0,0
18.01.2021 01:00:00 5,6 3,9 - - 13 7 - - SW 1026,8 40 0,0
18.01.2021 00:00:00 6,4 4,8 - - 16 9 52 28 WSW 1027,2 25 0,0
17.01.2021 23:00:00 5,7 3,5 - - 11 6 - - SW 1027,7 29 0,0
17.01.2021 22:00:00 6,5 4,2 - - 9 5 - - SW 1027,9 40 0,0
17.01.2021 21:00:00 5,8 4,0 - - 4 2 - - ESE 1028,4 18 0,0
17.01.2021 20:00:00 6,0 3,4 - - 4 2 - - W 1028,2 16 0,0
17.01.2021 19:00:00 6,1 3,7 - - 9 5 - - W 1028,0 21 0,0
17.01.2021 18:00:00 6,4 3,7 - - 9 5 - - WNW 1028,6 28 0,0
17.01.2021 17:00:00 7,1 4,1 - - 13 7 - - NW 1028,7 16 0,0
17.01.2021 16:00:00 7,7 3,9 - - 15 8 - - NW 1028,2 26 0,0
17.01.2021 15:00:00 8,3 4,2 - - 16 9 - - NW 1028,0 10 0,0
17.01.2021 14:00:00 8,5 4,1 - - 22 12 - - NW 1028,1 27 0,0
17.01.2021 13:00:00 8,8 3,2 - - 18 10 - - NW 1028,3 35 0,0
17.01.2021 12:00:00 8,8 3,7 - - 21 11 - - NNW 1028,5 16 0,0
17.01.2021 11:00:00 8,2 3,3 - - 21 11 - - NNW 1028,5 27 0,0
17.01.2021 10:00:00 7,4 3,1 - - 15 8 - - NNW 1027,6 28 0,0
17.01.2021 09:00:00 6,6 3,0 7,5 8,4 15 8 - - NW 1027,2 30 0,0
17.01.2021 08:00:00 6,5 2,7 - - 16 9 - - NW 1026,4 40 0,0
17.01.2021 07:00:00 6,4 2,3 - - 18 10 - - NW 1025,4 50 0,0
17.01.2021 06:00:00 6,9 2,2 - - 28 15 - - NW 1024,6 40 0,0
17.01.2021 05:00:00 7,4 2,8 - - 28 15 - - NNW 1024,3 35 0,0
17.01.2021 04:00:00 7,8 3,6 - - 34 18 - - NW 1023,8 27 0,0
17.01.2021 03:00:00 7,5 3,3 - - 28 15 - - NW 1023,4 18 0,0
17.01.2021 02:00:00 7,4 2,7 - - 31 17 50 27 NW 1023,0 16 0,0
17.01.2021 01:00:00 8,1 3,0 - - 31 17 50 27 NW 1022,8 17 0,0
17.01.2021 00:00:00 7,4 2,7 - - 29 16 - - NW 1022,5 15 0,0
16.01.2021 23:00:00 7,9 2,6 - - 24 13 - - WNW 1022,4 16 0,0
16.01.2021 22:00:00 7,1 1,4 - - 15 8 - - NW 1022,1 18 0,0
16.01.2021 21:00:00 8,5 1,0 - - 22 12 - - NW 1021,7 25 0,0
16.01.2021 20:00:00 8,4 3,2 - - 24 13 - - NW 1021,5 16 0,0
16.01.2021 19:00:00 8,2 4,8 - - 26 14 - - NW 1021,1 13 0,0
16.01.2021 18:00:00 8,5 5,7 - - 22 12 - - NW 1020,7 12 0,0
16.01.2021 17:00:00 8,1 5,4 - - 28 15 - - NW 1020,1 14 0,0
16.01.2021 16:00:00 8,8 5,9 - - 26 14 - - WNW 1019,4 10 0,0
16.01.2021 15:00:00 9,2 5,9 - - 29 16 - - NW 1019,0 16 0,0
16.01.2021 14:00:00 9,4 5,7 - - 31 17 46 25 NW 1018,9 13 0,0
16.01.2021 13:00:00 9,8 6,1 - - 29 16 - - WNW 1018,8 12 0,0
16.01.2021 12:00:00 9,8 6,6 - - 26 14 - - WNW 1019,2 21 0,0
16.01.2021 11:00:00 9,8 7,0 - - 24 13 - - WNW 1018,9 16 0,0
16.01.2021 10:00:00 9,1 7,3 - - 22 12 - - WNW 1018,3 13 0,0
16.01.2021 09:00:00 9,6 8,5 7,2 8,4 24 13 - - WNW 1017,5 11 0,0
16.01.2021 08:00:00 9,7 9,0 - - 22 12 - - W 1016,5 7 0,6
16.01.2021 07:00:00 9,3 8,8 - - 18 10 - - SW 1015,9 3,4 1,2
16.01.2021 06:00:00 9,2 8,3 - - 31 17 52 28 SSW 1016,6 9 2,6
16.01.2021 05:00:00 8,7 7,7 - - 21 11 - - S 1017,8 5 1,8
16.01.2021 04:00:00 7,9 6,9 - - 24 13 - - SSE 1019,1 5 0,6
16.01.2021 03:00:00 8,0 6,8 - - 24 13 - - SSE 1020,5 11 1,4
16.01.2021 02:00:00 6,5 5,8 - - 18 10 - - ESE 1021,8 8 4,0
16.01.2021 01:00:00 6,1 5,3 - - 22 12 - - ESE 1022,9 7 3,6
16.01.2021 00:00:00 5,7 4,4 - - 18 10 - - ESE 1024,3 9 1,2
15.01.2021 23:00:00 5,5 2,9 - - 24 13 - - ESE 1025,2 40 0,0
15.01.2021 22:00:00 5,1 2,2 - - 21 11 - - ESE 1026,2 45 0,0
15.01.2021 21:00:00 4,6 1,6 - - 26 14 - - ESE 1026,9 40 0,0
15.01.2021 20:00:00 4,1 1,3 - - 26 14 - - SE 1027,6 45 0,0
15.01.2021 19:00:00 4,0 1,4 - - 21 11 - - SE 1028,1 30 0,0
15.01.2021 18:00:00 4,7 1,7 - - 22 12 - - SE 1028,5 40 0,0
15.01.2021 17:00:00 4,9 1,8 - - 16 9 - - ESE 1028,9 45 0,0
15.01.2021 16:00:00 5,1 2,1 - - 18 10 - - ESE 1028,8 28 0,0
15.01.2021 15:00:00 5,3 1,9 - - 21 11 - - SE 1029,4 35 0,0
15.01.2021 14:00:00 5,0 1,7 - - 21 11 - - SE 1029,7 45 0,0
15.01.2021 13:00:00 5,1 2,0 - - 21 11 - - SE 1030,3 40 0,0
15.01.2021 12:00:00 4,6 2,1 - - 18 10 - - SE 1031,1 24 0,0
15.01.2021 11:00:00 3,8 2,1 - - 15 8 - - ESE 1031,1 14 0,0
15.01.2021 10:00:00 2,8 1,7 - - 11 6 - - ESE 1031,0 10 0,0
15.01.2021 09:00:00 2,4 1,1 7,7 8,2 13 7 - - E 1030,2 14 0,0
15.01.2021 08:00:00 2,4 1,3 - - 15 8 - - E 1029,6 13 0,0
15.01.2021 07:00:00 2,6 1,1 - - 11 6 - - E 1029,3 14 0,0
15.01.2021 06:00:00 2,5 1,4 - - 8 4 - - E 1029,0 13 0,0
15.01.2021 05:00:00 2,6 1,5 - - 9 5 - - ESE 1028,5 10 0,0

tt = temperature
td = dewpoint
tt -20cm = temperature -20cm
tt -100cm = temperature -100cm
ff = wind speed
fx = gusts
dd = wind direction
ppp = reduced air pressure
vv = visibility
rr = precipitation

Next stations